Regional Weather Roundup
Issued by NWS Charleston, WV

Home | Current Version | Previous Version | Graphics & Text | Print | Product List | Glossary On
Versions: 1 2 3 4 5 6 7 8 9 10 11 12 13 14 15 16 17 18 19 20 21 22 23 24 25 26 27 28 29 30 31 32 33 34 35 36 37 38 39 40 41 42 43 44 45 46 47 48 49 50
000
ASUS41 KRLX 081710
RWRRLX
CRWRWRRLX ALL
West Virginia Regional Weather Roundup
National Weather Service Charleston WV
Issued by National Weather Service Pittsburgh PA
1200 PM EST THU DEC 08 2016

Note: "fair" indicates few or no clouds below 12,000 feet with no
significant weather and/or obstructions to visibility.

WVZ003-081800-
Northern Panhandle of West Virginia

CITY           SKY/WX    TMP DP  RH WIND       PRES   REMARKS
WHEELING       CLOUDY    27  16  63 W17G24    30.13R WCI  14
$$

WVZ009-081800-
Northwest West Virginia

CITY           SKY/WX    TMP DP  RH WIND       PRES   REMARKS
PARKERSBURG    MOSUNNY   33  19  56 W16G23    30.21S WCI  23
$$

WVZ006-081800-
Western West Virginia

CITY           SKY/WX    TMP DP  RH WIND       PRES   REMARKS
HUNTINGTON     MOSUNNY   35  17  47 W13G21    30.24S WCI  26
$$

WVZ015-081800-
West Central West Virginia

CITY           SKY/WX    TMP DP  RH WIND       PRES   REMARKS
CHARLESTON     MOSUNNY   37  17  44 W10G22    30.19F
$$

WVZ031-081800-
North Central West Virginia

CITY           SKY/WX    TMP DP  RH WIND       PRES   REMARKS
CLARKSBURG     MOSUNNY   36  20  52 W15       30.10S
MORGANTOWN     MOSUNNY   36  19  50 W7        30.08F
$$

WVZ035-042-081800-
South Central West Virginia

CITY           SKY/WX    TMP DP  RH WIND       PRES   REMARKS
BECKLEY        SUNNY     33  15  47 NW17G26   30.11F WCI  22
BLUEFIELD      SUNNY     33  15  47 W16G25    30.09F WCI  23
$$

WVZ045-081800-
Greenbrier Valley of West Virginia

CITY           SKY/WX    TMP DP  RH WIND       PRES   REMARKS
LEWISBURG      SUNNY     35  14  42 NW14G22   30.07F WCI  25
$$

WVZ047-081800-
Northern Mountains of West Virginia

CITY           SKY/WX    TMP DP  RH WIND       PRES   REMARKS
ELKINS         CLOUDY    35  16  45 W13G22    30.06F WCI  26
$$

WVZ052-081800-
Eastern Panhandle of West Virginia

CITY           SKY/WX    TMP DP  RH WIND       PRES   REMARKS
MARTINSBURG    MOSUNNY   45  19  35 SW13G22   30.01F
PETERSBURG     SUNNY     43  18  37 SW14G23   30.05F
$$



USA.gov is the U.S. government's official web portal to all federal, state and local government web resources and services.